Theta_e
333 331 330 327 325 322 319 319 320 320 316 314 314 313 312 312 311 312 311 311 311 310
333 332 325 323 321 319 319 319 317 314 312 312 312 311 310 309 310 311 311 310 310 310
328 325 322 320 318 318 316 314 311 310 309 308 308 308 308 307 308 309 310 309 310 311
320 319 318 316 314 313 312 310 308 308 307 306 305 305 306 307 308 308 309 310 310 312
315 314 313 312 312 311 307 307 306 306 305 304 303 303 304 306 307 308 309 311 314 313
312 312 311 310 308 307 305 304 304 303 302 302 301 302 303 304 305 307 312 313 314 312
311 310 310 308 307 305 305 303 302 301 301 300 300 301 302 303 304 307 312 314 315 310
309 309 309 308 306 305 304 302 301 300 299 299 299 299 302 303 304 308 310 312 313 310
308 308 307 307 305 303 301 300 299 298 297 296 297 297 300 302 302 307 308 306 306 307
307 307 306 306 305 302 300 299 297 296 296 294 295 295 296 300 302 304 307 305 304 304
306 306 306 305 303 302 300 298 296 294 293 293 294 294 295 297 302 304 305 304 303 302
304 304 305 304 303 301 299 296 294 293 293 292 292 293 293 294 297 299 301 302 302 300
303 303 303 305 304 301 298 295 294 293 292 293 292 292 293 293 294 296 297 300 300 297
300 299 301 304 305 303 299 296 294 293 292 292 291 292 292 292 293 294 296 296 296 296
Wind_Speed
12 8 8 9 4 6 8 5 5 4 6 6 4 4 6 4 4 4 4 4 2 2
10 10 10 12 11 7 8 5 8 6 7 5 5 5 5 4 4 3 3 5 4 2
9 9 10 13 12 9 8 8 10 8 6 6 6 5 5 4 3 4 3 2 2 3
11 12 11 11 11 10 10 9 8 6 5 5 5 4 4 4 3 4 3 3 4 5
13 12 11 12 12 11 10 7 7 5 5 6 5 3 4 5 4 4 4 4 6 7
13 13 11 11 12 10 10 7 6 5 6 5 5 4 5 5 4 3 6 7 6 6
12 12 11 11 10 9 7 7 6 6 7 8 6 7 7 6 6 7 7 6 5 5
12 12 11 11 10 8 7 7 8 8 9 8 8 8 8 7 6 6 5 5 4 5
11 11 11 11 10 9 8 8 9 9 9 9 8 15 13 7 5 5 5 5 6 6
9 10 9 9 9 9 8 8 9 9 9 9 9 15 14 11 3 3 4 6 6 5
8 9 8 9 9 8 7 8 7 8 8 7 8 15 14 11 6 3 5 6 5 6
8 8 8 9 8 7 9 8 7 7 8 8 8 14 14 8 6 5 6 6 6 8
6 7 7 8 8 7 8 8 7 8 7 10 6 10 12 9 4 6 5 5 7 11
7 8 6 7 8 8 8 7 7 7 6 7 8 7 11 11 5 5 5 6 6 6
Wind_Direction
134 143 129 123 132 127 125 139 105 101 81 82 76 80 69 71 79 92 90 99 100 99
144 130 119 118 112 115 105 91 79 60 71 68 64 73 82 76 72 94 74 50 41 61
95 95 112 111 104 103 91 100 84 66 56 54 46 49 60 57 41 66 52 61 83 67
95 98 106 99 96 91 87 82 86 80 73 65 55 41 66 85 72 97 86 50 51 55
96 92 87 91 92 92 93 88 94 93 84 64 54 46 66 79 56 57 41 32 42 45
97 95 91 89 86 86 87 74 71 74 71 65 49 48 50 55 40 19 30 28 32 44
103 99 99 97 96 94 97 107 100 78 61 47 44 42 39 33 24 22 24 25 58 51
104 106 108 105 103 105 101 90 76 67 51 36 38 24 22 25 15 17 19 31 45 44
112 115 117 116 120 117 97 81 72 60 55 40 37 18 24 27 19 16 31 28 18 3
107 109 114 114 107 99 89 80 62 54 49 43 28 16 16 19 23 40 38 37 24 360
107 111 110 104 101 95 87 76 64 56 49 48 31 21 16 4 17 31 48 47 15 27
102 104 112 106 109 106 98 85 70 57 48 43 30 20 17 13 22 26 34 30 34 26
83 94 97 111 103 89 94 99 92 69 45 39 27 14 15 17 16 37 27 27 26 31
70 74 77 94 104 109 106 99 77 64 38 31 22 4 11 14 37 40 38 39 29 26